User: anonymous   Login
Location: Unspecified
(0.0000°N, 0.0000°E)
Time: 07:47:25
(UTC+00:00)
Language:

TBA - TO BE ASSIGNED - Orbit

View from above orbital plane
View from above orbital plane
View from above satellite
View from above satellite

Ground track
Ground track

The orbit is defined by the following mean orbital elements,

1 68509U          26145.22548417 +.00000000 +00000-0 +68992-3 0 00009
2 68509  53.1610 132.2907 0000550  41.5844 318.5201 15.34399271    00
Epoch (UTC): 25 May 2026 05:24:41
Eccentricity: 0.0000550
inclination: 53.1610°
perigee height: 462 km
apogee height: 463 km
right ascension of ascending node: 132.2907°
argument of perigee: 41.5844°
revolutions per day: 15.34399271
mean anomaly at epoch: 318.5201°

The dashed part of the orbit path shows where the satellite is in the earth's shadow,  

DLR